SCP
0 0 0 0 0 0 0 0 0 0 0 0 0 0 0 0 0 0 0 0 0 0 0 0 0 0 0 0 0 0 0 0 0 0 1 1 1 1
0 0 0 0 0 0 0 0 0 0 0 0 0 0 0 0 0 0 0 0 0 0 0 0 0 0 0 0 0 0 0 0 0 0 1 1 1 1
0 0 0 0 0 0 0 0 0 0 0 0 0 0 0 0 0 0 0 0 0 0 0 0 0 0 0 0 0 0 0 0 0 0 0 0 0 1
0 0 0 0 0 0 0 0 0 0 0 0 0 0 0 0 0 0 0 0 0 0 0 0 0 0 0 0 0 0 0 0 0 0 0 0 0 0
0 0 0 0 0 0 0 0 0 0 0 0 0 0 0 0 0 0 0 0 0 0 0 0 0 0 0 0 0 0 0 0 0 0 0 0 0 0
0 0 0 0 0 0 0 0 0 0 0 0 0 0 0 0 0 0 0 0 0 0 0 0 0 0 0 0 0 0 0 0 0 0 0 0 0 0
0 0 0 0 0 0 0 0 0 0 0 0 0 0 0 0 0 0 0 0 0 0 0 0 0 0 0 0 0 0 0 0 0 0 0 0 0 0
0 0 0 0 0 0 0 0 0 0 0 0 0 0 0 0 0 0 0 0 0 0 0 0 0 0 0 0 0 0 0 0 0 0 0 0 0 0
0 0 0 0 0 0 0 0 0 0 0 0 0 0 0 0 0 0 0 0 0 0 0 0 0 0 0 0 0 0 0 0 0 0 0 0 0 0
0 0 0 0 0 0 0 0 0 0 0 0 0 0 0 0 0 0 0 0 0 0 0 0 0 0 0 0 0 0 0 0 0 0 0 0 0 0
0 0 0 0 0 0 0 0 0 0 0 0 0 0 0 0 0 0 0 0 0 0 0 0 0 0 0 0 0 0 0 0 0 0 0 0 0 0
0 0 0 0 0 0 0 0 0 0 0 0 0 0 0 0 0 0 0 0 0 0 0 0 0 0 0 0 0 0 0 0 0 0 0 0 0 0
0 0 0 0 0 0 0 0 0 0 0 0 0 0 0 0 0 0 0 0 0 0 0 0 0 0 0 0 0 0 0 0 0 0 0 0 0 0
0 0 0 0 0 0 0 0 0 0 0 0 0 0 0 0 0 0 0 0 0 0 0 0 0 0 0 0 0 0 0 0 0 0 0 0 0 0
0 0 0 0 0 0 0 0 0 0 0 0 0 0 0 0 0 0 0 0 0 0 0 0 0 0 0 0 0 0 0 0 0 0 0 0 0 0
0 0 0 0 0 0 0 0 0 0 0 0 0 0 0 0 0 0 0 0 0 0 0 0 0 0 0 0 0 0 0 0 0 0 0 0 0 0
0 0 0 0 0 0 0 0 0 0 0 0 0 0 0 0 0 0 0 0 0 0 0 0 0 0 0 0 0 0 0 0 0 0 0 0 0 0
0 0 0 0 0 0 0 0 0 0 0 0 0 0 0 0 0 0 0 0 0 0 0 0 0 0 0 0 0 0 0 0 0 0 0 0 0 0
0 0 0 0 0 0 0 0 0 0 0 0 0 0 0 0 0 0 0 0 0 0 0 0 0 0 0 0 0 0 0 0 0 0 0 0 0 0
0 0 0 0 0 0 0 0 0 0 0 0 0 0 0 0 0 0 0 0 0 0 0 0 0 0 0 0 0 0 0 0 0 0 0 0 0 0
0 0 0 0 0 0 0 0 0 0 0 0 0 0 0 0 0 0 0 0 0 0 0 0 0 0 0 0 0 0 0 0 0 0 0 0 0 0
0 0 0 0 0 0 0 0 0 0 0 0 0 0 0 0 0 0 0 0 0 0 0 0 0 0 0 0 0 0 0 0 0 0 0 0 0 0
0 0 0 0 0 0 0 0 0 0 0 0 0 0 0 0 0 0 0 0 0 0 0 0 0 0 0 0 0 0 0 0 0 0 0 0 0 0
Wind_Speed
3 2 2 1 1 1 1 2 2 3 4 3 2 1 1 1 2 2 3 6 7 7 7 7 7 7 7 7 8 8 9 9 9 10 10 11 11 11
2 2 2 2 2 2 2 2 2 3 4 3 2 3 3 3 4 3 3 6 7 7 8 7 7 7 8 8 9 9 9 9 10 10 11 11 11 11
2 3 4 3 2 2 2 2 3 3 5 4 3 3 3 3 3 3 3 3 4 7 8 8 8 8 8 8 9 9 10 9 10 10 11 11 11 10
3 4 4 3 4 3 3 3 3 3 4 5 4 3 4 4 4 3 3 3 3 7 8 8 8 8 8 9 9 9 9 9 9 10 10 11 11 11
4 4 4 4 4 3 3 4 3 3 3 4 4 3 3 3 3 3 4 4 4 5 7 8 8 8 9 9 9 9 8 8 9 9 10 10 10 10
4 4 4 4 5 4 4 4 4 3 3 4 4 3 3 3 2 3 4 3 4 3 5 6 7 8 8 9 9 8 8 8 9 10 10 9 9 9
4 4 4 5 6 5 4 4 4 3 3 4 4 3 3 3 3 3 4 4 4 3 3 3 3 3 4 6 8 8 9 9 10 10 10 10 10 10
4 4 4 5 7 8 9 8 6 5 5 5 5 5 5 4 4 3 4 4 4 2 2 4 2 3 3 3 6 9 9 10 10 10 10 10 10 10
4 4 4 4 5 4 6 8 8 9 9 7 6 7 6 5 5 5 5 5 5 3 2 4 2 4 3 4 9 9 9 9 9 9 9 10 10 10
4 4 4 4 4 4 4 4 5 5 7 6 6 6 5 5 6 6 6 5 3 2 2 4 3 3 4 3 8 9 9 9 9 9 9 9 10 10
4 4 5 4 7 8 5 4 5 5 6 9 10 9 10 9 7 3 3 3 4 3 2 2 2 3 3 3 5 7 8 8 8 9 9 10 10 9
3 4 7 7 8 8 5 4 6 5 4 5 6 7 6 6 7 5 4 3 2 2 2 1 1 1 3 3 2 2 3 6 8 9 9 10 10 6
3 3 4 9 9 9 7 5 7 6 4 4 4 4 3 3 3 3 3 3 3 3 2 1 1 1 2 3 3 2 2 2 3 5 7 9 10 7
4 3 5 9 9 9 7 8 9 7 3 3 4 3 3 3 2 3 2 2 2 3 3 2 2 3 3 4 4 2 2 2 2 3 3 6 8 10
4 7 8 9 9 7 8 10 7 3 2 3 4 4 3 3 2 1 1 1 2 2 2 2 2 2 3 4 4 3 4 3 2 2 3 3 3 4
4 6 8 8 7 7 7 5 3 3 3 3 4 3 2 2 2 1 1 1 1 2 1 2 2 3 3 4 4 4 4 3 2 3 4 4 4 3
4 2 3 3 3 3 3 3 3 3 3 3 3 3 2 2 2 2 1 1 2 2 2 1 1 2 3 4 4 4 4 4 3 3 4 5 5 4
4 3 3 3 4 4 4 3 3 3 3 3 3 3 3 3 3 2 2 2 3 2 2 2 1 2 2 3 5 4 4 4 3 3 3 5 6 4
4 3 4 4 4 4 4 4 4 3 3 3 3 3 3 3 3 3 3 2 2 2 2 2 2 2 3 4 3 4 3 4 3 3 3 4 6 6
3 3 4 4 4 4 4 4 3 3 3 3 3 3 3 3 3 3 3 3 3 2 3 2 3 3 4 4 3 4 5 4 4 4 4 4 4 7
3 4 4 4 4 4 4 4 4 3 3 3 3 3 3 3 3 3 3 4 3 2 3 3 3 4 2 1 2 3 3 5 5 4 4 4 4 4
3 4 4 4 4 4 4 3 3 3 3 3 3 3 3 3 3 3 3 3 2 2 3 2 1 1 2 2 3 4 4 4 4 6 6 5 3 3
4 4 4 4 3 3 3 3 3 3 3 3 3 2 2 2 2 2 2 2 2 2 2 2 2 2 2 2 3 3 4 5 4 3 4 5 6 7
Wind_Direction
224 218 221 239 249 249 239 221 223 263 271 265 284 286 285 266 272 268 269 284 280 273 269 267 266 267 269 273 275 276 278 277 277 275 275 274 273 275
228 222 221 224 235 239 236 245 233 232 257 271 271 292 304 309 297 287 271 290 283 276 270 265 262 264 269 272 274 276 277 278 274 272 271 271 272 271
244 233 232 229 231 236 241 244 245 238 257 274 277 285 290 291 290 281 278 272 270 269 270 267 266 264 264 268 272 275 276 278 275 273 271 269 270 271
245 240 239 239 239 236 236 241 245 246 248 267 281 286 283 278 275 280 287 284 271 271 267 267 268 266 266 267 267 270 273 275 277 276 275 271 268 268
249 245 245 238 241 242 239 240 243 253 253 260 273 281 285 282 286 290 288 279 274 274 272 269 268 270 271 270 269 268 270 272 275 277 277 271 268 268
255 248 246 242 245 244 244 243 246 247 253 261 268 276 281 281 277 282 289 281 279 284 277 275 270 270 272 274 274 272 271 271 273 277 276 275 273 270
258 253 253 256 257 256 256 248 247 246 252 256 264 273 271 273 264 266 277 284 278 260 266 263 265 257 258 268 270 270 272 272 274 275 272 271 270 268
268 262 261 257 259 264 266 263 253 247 246 248 256 260 260 258 263 266 275 279 273 243 256 269 255 261 259 250 266 275 276 275 277 278 273 269 267 266
269 270 273 271 273 265 271 272 270 267 261 253 251 255 257 251 254 259 259 262 267 257 262 267 249 258 264 271 276 275 275 280 281 282 280 275 272 269
263 264 267 265 264 270 267 268 268 271 271 263 257 260 263 255 244 250 257 266 278 261 237 257 260 262 274 265 273 274 276 279 282 284 287 286 281 276
261 260 263 261 270 278 274 270 275 278 280 280 283 281 278 278 273 263 249 253 272 261 238 240 260 283 279 263 265 273 279 281 285 288 290 292 288 284
265 260 263 267 270 274 266 262 269 276 286 290 288 287 279 271 271 250 230 238 263 259 230 232 267 313 297 274 255 266 273 280 286 289 290 290 292 287
270 269 269 276 275 275 274 259 264 277 274 271 274 276 271 260 253 252 242 229 238 250 224 208 263 263 260 290 295 281 268 277 286 285 286 289 291 288
266 268 273 281 283 281 278 277 280 284 272 269 269 266 263 261 258 256 253 259 252 253 229 210 236 240 260 280 282 286 292 283 280 282 280 291 290 286
271 277 281 283 287 282 278 280 281 270 261 260 262 265 264 266 267 276 297 309 323 297 247 231 229 234 245 264 276 282 293 287 265 271 281 284 280 282
280 276 279 280 284 282 279 275 263 252 252 253 259 261 261 257 251 245 260 273 298 311 303 268 241 232 258 268 268 276 275 270 279 284 283 283 281 269
284 272 266 269 267 269 268 260 251 254 258 251 254 258 260 259 258 248 247 241 252 265 285 296 283 259 256 257 265 262 269 274 272 282 288 289 283 272
281 265 262 261 259 262 265 263 252 250 252 254 253 251 251 250 255 249 241 240 249 253 255 250 267 306 305 282 244 254 262 271 278 278 275 285 288 281
266 260 263 263 262 261 263 263 261 255 251 250 250 251 250 248 244 242 235 235 246 250 252 243 239 254 281 289 277 243 263 278 281 281 271 271 279 285
260 259 264 268 265 259 258 260 261 259 253 249 248 245 241 244 245 240 233 231 242 256 261 248 242 248 257 267 276 282 271 267 272 277 283 283 279 284
269 264 261 262 266 263 258 254 250 248 250 251 249 247 244 240 242 239 234 243 249 245 255 262 264 291 295 290 285 286 283 279 280 277 282 289 293 289
273 268 266 264 265 267 264 255 250 249 246 248 251 250 246 239 237 234 231 229 234 244 261 274 273 288 285 272 275 284 299 308 307 300 285 273 267 265
278 277 276 273 267 264 263 257 252 251 248 248 247 248 244 241 236 232 232 228 230 236 247 269 280 285 284 270 271 283 295 306 312 319 307 304 295 281